Wind_Speed
8 7 7 7 7 7 7 8 8 8 8 9 9 9 9 10 10 9 9 8 8 8 8 8 8 8 8 8 9 9 10 10 11 11 11 10 9 8 7 7 6 6 5 4 4 3 3 4 4 4 4 3 2 1 1 3 5 6 7 8 9 10 11 12 13 13 13 12 11 10 9 8 8 8 7 6 5 5 5 5 5 5 6 5 5
7 7 6 6 6 6 6 6 7 7 8 8 8 8 9 9 9 8 8 7 7 7 7 7 7 7 7 7 7 8 9 10 10 10 11 10 10 9 8 8 7 6 6 5 4 4 4 3 3 3 4 3 3 3 2 1 2 4 6 8 8 9 9 10 11 12 13 13 12 11 11 10 9 9 8 8 7 6 6 6 5 5 6 6 6
6 6 6 6 6 6 5 5 6 6 6 7 7 7 8 8 7 7 7 7 7 6 6 5 5 5 5 5 6 7 8 9 9 10 10 10 10 10 9 8 8 7 6 6 5 4 3 3 3 3 3 3 3 2 2 2 2 2 4 6 7 7 7 7 8 9 11 12 13 13 13 13 12 11 11 10 9 8 7 7 7 6 6 6 6
6 6 6 6 5 5 4 4 5 6 6 6 6 7 7 7 7 7 7 7 7 6 6 5 4 4 3 3 4 5 6 7 8 9 10 10 10 10 9 9 8 7 6 6 5 4 4 3 3 2 2 2 2 1 2 2 3 3 4 4 5 6 5 5 6 8 9 11 12 13 14 14 14 14 13 13 11 10 9 8 8 7 7 6 6
6 6 6 6 5 4 3 3 4 5 5 6 6 6 6 7 7 7 8 7 7 7 6 5 4 3 3 2 3 3 5 6 7 8 9 10 10 10 10 10 10 8 6 6 5 5 4 3 3 3 2 1 1 1 2 2 2 3 4 4 3 4 4 3 3 4 7 9 10 11 12 13 14 14 15 15 14 13 11 9 9 8 8 7 7
6 6 6 5 5 4 3 3 5 5 6 6 5 6 6 7 7 7 8 8 8 8 7 6 5 4 3 2 1 2 3 4 5 6 8 9 10 10 11 11 10 9 7 7 6 5 3 2 2 2 2 1 1 1 2 2 2 3 5 5 4 4 4 2 2 2 5 7 7 8 9 10 12 12 13 14 14 14 12 11 10 10 9 8 8
6 6 5 5 4 3 3 4 5 5 5 5 5 6 7 7 7 7 8 8 8 8 8 8 7 6 5 4 2 1 1 2 3 5 6 7 9 9 10 11 11 10 9 7 6 6 4 3 2 2 2 1 2 2 2 2 2 3 4 5 5 5 3 2 2 2 3 4 4 5 6 8 9 10 11 12 12 13 13 13 12 12 11 10 9
6 5 4 4 3 2 3 4 4 4 4 4 5 6 7 7 8 8 8 9 9 8 8 8 9 8 8 6 5 3 3 2 3 4 4 5 7 8 9 10 10 10 9 8 7 6 5 4 3 2 2 1 2 2 2 2 3 3 4 5 5 5 2 1 3 4 3 3 3 3 3 5 6 7 7 8 9 11 12 13 13 12 11 11 11
5 4 3 2 2 2 4 4 4 4 4 3 4 5 6 7 8 8 9 9 9 9 9 9 8 8 8 7 6 5 5 4 3 3 3 4 5 7 8 9 9 9 9 9 8 6 5 4 4 4 3 3 2 2 2 2 3 4 5 6 6 6 3 1 2 3 2 3 3 4 3 4 5 5 4 4 5 7 9 10 11 11 11 11 12
4 3 2 2 2 3 4 4 5 4 3 2 3 4 5 6 7 8 9 10 10 10 9 9 8 7 7 7 6 6 6 5 4 3 3 4 5 6 7 8 9 9 9 9 8 6 5 5 5 5 5 4 3 2 2 1 2 4 5 6 7 7 5 2 2 3 3 3 3 4 4 3 4 4 3 3 4 5 7 8 8 8 10 11 11
3 2 2 3 3 4 5 5 5 4 3 3 3 4 5 6 8 9 10 10 10 10 9 8 7 7 6 6 6 5 5 6 5 5 5 5 6 6 6 7 8 9 9 9 9 8 6 5 5 5 6 6 5 4 3 2 2 3 4 5 6 6 5 3 3 3 3 3 3 4 4 4 4 4 3 3 4 6 6 6 6 7 9 9 9
3 2 2 3 4 5 6 6 6 5 4 4 4 5 5 7 8 9 9 10 10 9 8 8 8 7 7 6 5 5 5 6 6 6 6 7 7 7 7 7 7 8 8 9 9 9 8 7 6 6 5 6 6 5 5 4 4 4 4 5 6 6 5 4 3 3 3 3 3 3 4 4 4 5 5 4 5 7 7 5 6 7 9 9 9
4 3 3 3 4 5 6 7 7 6 5 5 6 5 6 7 8 8 8 9 9 8 8 8 8 8 8 7 6 5 5 6 6 7 7 7 7 7 7 6 6 7 7 8 9 9 9 8 7 6 6 6 6 6 6 6 5 6 6 6 6 6 6 5 4 3 3 3 3 3 4 5 5 5 6 6 6 7 8 7 7 8 9 9 10
4 3 3 3 4 5 6 7 7 6 6 7 6 6 6 7 7 8 8 9 9 9 10 9 9 8 8 7 6 5 5 5 6 7 7 7 7 7 6 6 6 6 6 7 8 8 8 8 7 7 7 7 7 7 7 7 7 7 7 7 7 7 6 6 5 4 4 3 3 3 4 5 6 6 7 8 8 8 9 9 8 8 8 9 10
3 2 2 2 4 5 6 7 7 6 6 7 6 6 7 7 8 9 9 10 10 11 11 11 9 8 8 8 7 5 5 5 6 6 7 7 7 6 6 6 7 7 7 7 7 7 8 8 8 8 8 8 8 8 8 8 8 8 8 9 9 8 8 7 7 6 5 5 5 5 5 6 7 8 8 9 9 10 10 11 11 10 10 10 10
2 2 2 2 3 4 6 7 6 6 6 6 6 6 7 7 8 9 9 10 10 11 11 11 10 9 8 7 7 6 5 5 5 6 6 6 5 5 5 6 8 8 8 7 7 7 7 8 8 8 9 9 10 9 9 9 8 8 8 9 9 9 10 9 9 9 8 8 8 8 7 7 8 9 9 9 9 10 10 11 11 11 11 12 11
2 2 2 2 2 4 6 6 6 6 6 6 6 6 7 7 7 7 8 9 9 10 10 11 11 10 8 7 7 6 5 5 6 6 6 6 5 4 5 6 8 9 9 9 9 8 8 8 8 8 9 9 10 10 10 9 8 8 8 9 9 10 10 11 11 11 11 11 11 10 10 9 9 10 11 11 11 12 12 12 12 11 12 13 13
2 3 3 3 2 3 5 5 5 5 5 5 5 6 6 6 6 6 7 7 7 8 9 10 10 10 9 7 6 6 6 6 6 6 6 6 6 6 6 7 9 10 11 11 11 10 9 9 9 9 8 8 9 10 10 10 9 9 9 9 9 10 10 11 11 12 12 12 11 11 10 10 10 11 12 13 14 14 14 14 14 14 14 14 14
3 4 4 3 3 4 4 4 3 3 4 4 5 5 5 5 5 6 6 7 7 8 9 10 10 10 10 8 7 5 5 6 6 6 7 6 6 6 7 8 9 10 11 12 12 12 11 10 9 9 9 8 8 9 9 10 10 10 9 10 10 10 10 11 11 11 11 11 11 10 10 10 11 13 14 16 16 17 17 17 17 17 17 16 16
3 4 4 4 4 4 4 3 3 3 4 3 3 4 4 5 6 6 7 7 8 8 9 10 10 10 10 9 8 6 5 5 6 7 7 7 6 6 7 8 9 11 12 13 13 13 12 11 11 11 10 9 9 8 8 9 9 10 10 10 10 10 10 10 10 10 10 10 10 10 10 11 13 15 17 18 19 20 20 20 20 20 20 19 19
4 5 5 5 5 5 5 4 4 4 4 3 2 3 4 5 6 7 8 9 10 10 10 10 10 10 10 9 8 7 7 6 6 7 7 8 7 7 7 8 9 10 12 13 13 13 12 11 11 12 11 11 10 10 9 9 9 9 10 10 10 10 9 9 9 10 10 10 10 11 11 13 15 17 19 20 21 22 23 23 23 23 23 22 22
5 6 7 6 6 6 5 5 5 5 4 2 2 3 4 5 6 7 8 9 10 11 12 11 11 10 10 9 8 8 7 7 7 7 8 8 8 8 8 8 9 10 11 12 13 13 13 12 11 12 12 12 12 12 11 11 11 10 10 10 10 10 10 10 10 11 11 12 13 14 15 16 18 20 21 22 23 24 25 25 25 25 25 25 25
7 7 8 8 7 7 7 7 7 6 5 4 3 3 5 5 6 7 8 9 10 11 11 11 11 10 9 8 8 8 8 8 9 9 9 8 7 7 7 7 8 9 11 12 12 12 13 12 12 13 13 14 14 14 14 14 14 13 13 13 12 12 12 13 13 14 15 16 17 18 20 21 23 24 25 25 25 26 26 27 27 27 27 27 27
8 8 10 10 9 8 8 8 8 7 6 6 5 5 5 6 6 7 8 9 10 10 9 10 10 10 9 9 8 8 8 10 10 11 10 10 9 7 7 7 8 9 10 11 11 12 12 12 13 14 14 15 16 16 16 16 16 16 16 16 16 16 16 16 17 18 20 21 22 24 25 27 28 29 29 29 28 28 28 29 29 29 29 29 29
9 9 10 12 11 10 9 9 9 8 8 7 7 6 6 6 6 8 9 9 9 9 9 10 10 10 9 9 9 8 9 9 10 11 11 11 10 10 9 9 9 9 10 10 11 11 11 12 12 13 14 15 17 18 18 18 18 18 18 18 18 18 19 19 20 21 23 25 26 28 30 31 32 33 33 32 32 31 30 31 31 31 31 31 30
9 9 10 12 13 11 10 10 10 9 9 9 8 7 6 6 7 8 8 8 9 9 10 10 10 9 9 9 9 9 9 9 9 10 11 11 11 10 11 11 11 11 10 10 10 11 12 12 12 12 12 13 15 16 18 18 19 20 20 20 20 20 21 22 22 23 24 25 27 28 30 32 33 33 34 34 33 33 33 33 33 33 33 32 32
10 9 11 13 13 12 11 11 11 11 10 10 9 8 6 6 7 7 7 7 8 9 9 10 10 10 10 10 10 9 10 10 9 10 11 11 11 10 10 11 11 12 11 11 11 12 12 13 13 13 13 13 13 14 15 17 18 19 20 21 21 22 23 24 25 25 25 26 27 28 29 30 31 33 33 34 34 34 34 34 35 35 35 34 33
10 10 11 13 14 13 12 12 13 12 11 11 10 8 6 6 6 7 6 7 7 8 9 10 10 11 11 11 11 10 10 10 9 10 10 10 10 10 10 9 10 11 12 12 13 13 14 14 14 14 14 15 14 15 16 17 19 20 21 22 22 23 25 26 26 27 28 28 29 30 30 31 32 33 33 34 35 35 35 35 36 36 36 36 36
12 12 13 14 15 14 13 13 14 14 12 12 11 9 7 6 6 6 6 6 7 7 8 9 10 10 11 11 11 11 10 9 9 9 9 9 9 9 9 9 9 10 11 12 13 14 14 14 15 15 16 17 17 18 19 20 21 21 22 23 24 25 26 27 28 29 30 31 31 32 32 33 33 34 34 35 36 36 36 37 37 37 37 37 38
14 14 14 15 15 15 14 14 15 15 14 13 13 10 8 6 5 5 6 6 6 6 8 8 9 10 10 11 11 11 10 9 9 9 10 9 9 10 10 10 10 10 10 11 11 12 14 14 15 16 17 18 19 20 21 22 22 23 24 24 25 26 28 29 30 31 32 33 34 35 35 35 36 36 37 37 37 38 38 38 38 38 38 38 39
16 15 16 16 17 16 15 15 16 16 15 14 14 12 9 7 5 5 6 6 6 6 7 7 7 9 10 10 11 10 10 9 9 10 10 10 10 11 11 12 12 11 11 10 10 10 12 14 14 15 16 17 19 20 22 23 24 25 26 27 27 28 28 29 31 32 33 34 35 36 37 38 39 39 40 40 40 40 40 40 40 40 40 40 40
18 17 18 18 18 17 16 16 17 17 16 15 15 13 10 8 6 6 7 6 6 7 7 6 7 9 10 10 10 10 10 9 9 9 10 10 10 10 11 12 12 13 12 12 11 11 12 14 15 16 17 18 19 20 22 23 25 26 28 29 30 30 30 31 32 33 34 35 36 36 37 38 39 40 41 41 42 42 42 42 42 42 42 42 42
19 19 19 20 19 18 16 17 18 17 16 16 16 14 12 9 7 7 7 8 8 8 8 8 9 10 9 10 10 10 10 9 9 10 10 10 10 10 11 11 12 13 13 14 13 13 13 14 16 18 19 20 20 21 23 24 25 27 29 30 31 32 32 33 34 35 35 36 37 37 38 39 40 41 41 42 42 43 44 44 44 43 43 42 42
21 20 21 21 21 19 17 18 19 18 17 17 17 16 13 11 9 7 7 8 9 9 10 9 9 10 10 11 12 12 12 11 10 11 11 11 11 11 11 12 13 13 14 15 15 15 14 14 16 17 19 20 21 22 23 25 26 28 29 30 31 32 33 34 35 36 36 37 37 38 39 40 41 42 42 43 43 44 45 45 45 45 44 44 43
23 23 23 24 22 20 18 20 20 19 18 17 18 17 15 12 10 8 7 8 9 9 9 9 8 10 12 14 15 15 15 14 13 14 15 15 15 14 12 12 13 14 14 15 16 17 17 16 17 18 19 21 22 22 23 24 26 27 28 29 30 32 33 34 35 36 37 37 38 38 38 39 40 41 42 42 42 43 43 44 44 45 45 45 44
24 24 25 25 23 20 19 21 21 20 19 18 19 18 17 14 12 10 9 9 9 10 10 10 10 11 13 15 16 16 16 16 15 16 18 20 20 19 16 13 13 14 15 15 16 17 19 20 21 22 23 23 24 24 24 24 25 26 28 29 29 30 31 32 33 35 36 37 38 39 39 40 40 40 40 41 41 42 42 42 42 43 44 45 45
25 25 26 25 22 19 19 21 22 21 20 19 20 20 18 16 14 12 11 11 11 11 12 13 13 14 15 16 16 16 16 17 18 20 21 21 21 21 18 16 14 15 15 16 16 17 19 21 24 25 26 27 27 27 26 26 26 27 28 29 29 30 30 30 32 34 36 37 38 39 40 41 42 41 41 41 42 42 43 43 42 42 44 45 46
25 25 24 22 20 19 20 23 24 23 21 20 20 21 20 18 16 15 14 13 13 13 13 15 16 16 16 17 17 17 18 20 22 23 24 22 20 19 18 17 16 16 17 17 17 18 19 22 24 27 28 28 29 30 30 29 29 30 30 30 31 32 32 32 34 36 37 38 40 41 42 42 43 43 44 44 44 45 45 45 45 46 46 45 45
21 21 21 19 19 19 20 23 24 24 22 21 21 22 21 19 18 17 16 14 14 14 14 16 18 18 18 19 20 21 22 23 23 23 23 21 19 18 17 17 17 18 18 19 19 19 20 22 24 27 28 29 30 31 31 31 31 31 31 32 33 34 36 36 38 40 41 41 42 43 44 45 46 47 47 47 47 47 47 47 48 49 49 48 46
17 17 18 18 18 19 20 22 24 25 23 22 22 22 22 21 21 20 18 16 15 15 15 17 18 19 21 21 22 24 25 23 22 21 20 19 17 17 17 18 18 19 20 21 21 21 21 23 25 26 27 28 30 32 32 32 31 32 33 34 35 36 37 38 40 43 44 45 45 46 47 49 50 50 48 47 47 47 48 48 48 48 49 48 48
15 16 16 17 18 19 20 21 23 24 24 22 22 23 24 24 23 22 20 18 16 15 15 16 18 19 21 22 23 24 24 21 21 22 21 19 18 18 19 20 20 20 21 22 23 23 23 24 25 26 27 28 31 32 32 31 31 32 34 35 36 37 38 39 41 44 46 47 48 48 49 49 49 48 46 46 46 48 49 49 49 49 49 50 50
13 15 16 17 18 19 19 20 22 23 24 23 23 24 25 26 26 25 23 20 18 16 15 16 18 19 21 21 22 25 24 22 23 23 21 19 20 21 22 22 22 22 23 24 25 25 25 25 26 27 28 29 32 33 31 30 32 33 35 37 38 39 40 41 43 45 47 48 49 49 47 45 45 46 46 46 48 49 50 50 50 51 51 51 52
9 12 15 16 18 19 19 20 22 23 24 24 25 26 27 28 29 28 26 23 20 17 16 16 18 19 21 23 23 25 25 24 24 24 21 20 21 22 23 23 23 24 24 25 26 27 27 27 27 28 30 31 33 33 31 31 33 35 37 38 40 41 42 43 44 45 47 48 48 47 43 41 43 45 46 47 48 48 48 49 49 49 49 50 50
10 10 11 13 15 18 19 21 23 23 24 26 27 27 28 29 30 30 29 27 23 20 17 17 17 19 21 23 24 25 25 24 24 23 21 21 22 23 24 25 26 26 27 28 28 29 29 29 29 30 32 33 33 33 32 33 35 37 39 40 41 43 44 44 44 45 46 47 46 44 42 40 41 43 44 45 46 46 46 47 47 47 48 48 48
13 11 10 12 13 15 17 19 21 23 24 26 28 29 29 30 31 32 31 30 26 23 19 17 17 18 21 23 25 25 26 26 25 23 21 21 23 24 25 26 28 29 30 30 31 31 31 31 30 32 33 34 34 34 34 35 37 38 40 41 42 43 44 44 44 45 45 45 44 42 40 39 40 41 42 43 43 44 44 45 45 46 45 45 46
17 14 14 15 15 15 16 17 19 21 23 25 28 29 30 31 32 33 33 32 30 26 23 19 17 18 20 23 26 26 27 28 27 24 22 23 24 26 27 28 29 30 31 32 33 33 32 32 32 33 34 34 35 35 35 36 38 39 41 42 43 44 44 44 44 43 43 43 41 39 38 38 39 40 40 41 42 42 43 44 44 45 44 44 44
21 20 20 19 18 18 18 18 19 19 21 24 27 29 31 32 33 35 35 34 32 30 27 23 19 18 20 24 26 27 28 29 28 25 24 25 26 27 28 29 30 31 33 34 35 35 34 33 33 34 35 35 35 35 36 37 39 40 41 42 43 43 43 43 42 41 40 40 39 38 38 38 39 39 39 40 41 42 43 44 44 45 45 44 44
25 25 24 23 22 22 22 22 22 22 23 24 25 28 30 33 35 36 36 35 34 33 31 27 23 21 22 24 28 29 30 31 30 27 25 26 27 29 30 30 31 33 34 36 36 36 35 34 34 35 35 35 35 36 37 38 40 41 42 42 42 42 42 42 40 39 38 38 38 38 38 38 38 38 38 39 40 42 43 44 45 45 46 45 45
29 28 28 27 27 28 28 27 26 26 27 27 27 28 30 33 36 37 37 36 36 36 36 32 27 25 25 26 30 32 32 33 32 29 27 27 29 31 32 33 33 35 36 37 38 38 37 36 36 36 36 35 35 36 37 39 40 41 42 42 41 41 41 40 38 37 37 38 38 38 37 36 36 37 38 39 41 42 44 46 46 47 47 46 46
31 31 31 31 31 31 32 31 30 31 31 32 31 31 32 34 36 37 38 38 37 38 39 37 32 29 28 29 32 34 34 35 34 31 29 29 31 33 35 36 36 37 38 38 39 39 38 37 36 36 36 36 36 37 38 39 40 41 41 41 40 40 39 38 36 36 36 37 37 36 35 35 36 38 39 41 42 44 45 47 47 48 47 46 45
33 34 34 34 34 34 34 34 34 35 35 35 35 35 36 37 38 39 39 38 39 40 41 40 37 33 31 32 34 36 38 38 36 33 31 32 33 35 37 38 39 39 39 40 40 40 38 37 37 37 36 36 37 37 39 40 40 41 40 39 39 38 37 37 36 36 36 36 35 34 35 36 38 40 41 42 43 44 45 45 45 46 46 44 43
Wind_Direction
113 110 106 103 99 95 93 89 86 82 77 72 65 59 57 56 52 47 43 42 40 36 37 40 39 36 36 39 41 42 44 45 42 41 42 42 40 42 53 58 58 66 71 64 62 60 60 65 69 66 61 54 58 94 216 232 238 239 238 239 239 240 242 243 242 240 240 241 240 238 237 237 241 246 247 249 252 255 260 262 266 272 280 288 296
117 115 112 110 106 101 97 92 86 79 73 67 59 51 47 48 46 40 35 32 34 35 36 40 39 35 31 30 30 30 33 38 39 37 36 37 38 39 45 50 48 52 64 63 60 59 55 58 64 64 61 58 60 62 67 59 259 248 244 243 242 243 245 246 247 246 247 248 249 249 248 245 246 249 251 253 252 251 252 256 260 264 270 278 286
121 122 123 121 116 110 104 92 80 70 61 55 50 42 37 35 32 29 29 25 25 28 29 33 39 39 30 24 21 20 23 27 30 30 29 30 35 38 39 46 47 42 49 59 61 64 66 69 67 62 63 68 63 45 45 49 22 322 275 255 251 254 255 255 253 252 251 251 252 253 253 253 251 253 253 254 253 252 249 249 252 256 262 270 276
126 128 130 127 121 115 106 87 67 55 43 38 36 31 27 23 17 12 14 19 18 18 19 19 27 39 39 25 14 12 16 18 19 21 20 19 26 34 36 45 51 42 40 50 59 65 72 83 87 87 76 70 64 22 2 30 23 342 306 279 269 270 267 263 257 255 253 250 251 253 255 256 256 255 255 255 255 255 254 254 255 258 262 267 273
134 132 129 125 118 111 101 73 52 39 26 23 25 27 24 19 13 6 4 7 9 8 8 6 8 19 34 33 13 7 10 9 8 14 16 11 13 22 28 37 47 44 37 40 52 64 79 94 105 111 96 66 58 27 343 9 19 319 294 288 286 276 265 261 263 268 263 255 251 254 258 262 263 262 260 259 257 258 262 265 266 267 268 272 278
136 132 126 119 113 106 86 57 43 29 19 19 24 31 32 26 19 10 4 2 1 2 358 350 350 358 9 26 17 7 13 360 355 7 14 7 5 12 20 28 36 41 38 35 41 52 62 82 104 103 78 8 346 2 348 350 342 300 290 290 282 267 266 295 356 337 278 263 255 256 261 266 269 270 268 264 260 259 261 266 269 270 270 271 275
138 132 124 114 105 92 63 44 35 23 14 18 29 36 39 35 26 15 8 4 360 359 352 342 343 346 350 2 1 355 19 356 345 1 11 5 358 5 16 22 27 33 36 36 36 38 30 17 32 73 76 10 341 343 337 326 301 288 290 290 283 275 290 333 327 291 275 277 271 264 263 266 269 272 272 269 263 256 255 259 264 268 272 277 279
140 131 120 106 90 55 33 23 17 10 8 17 31 39 41 36 28 17 9 8 3 357 350 342 340 339 339 346 347 339 348 357 349 355 7 4 353 359 12 16 20 24 29 33 34 33 24 6 1 19 46 26 2 348 328 314 299 294 291 290 290 297 330 357 269 263 277 294 294 287 278 275 277 280 278 272 264 256 254 258 263 270 278 283 285
142 130 116 93 60 21 11 7 2 2 6 21 36 40 39 34 25 14 4 4 4 359 353 344 336 332 329 335 340 336 336 346 351 347 352 356 352 358 7 9 12 18 22 28 31 28 21 13 2 354 357 4 10 2 337 320 307 299 295 298 306 314 333 359 253 255 262 277 288 292 287 291 300 308 300 271 256 254 255 259 270 282 289 288 288
144 130 102 64 34 16 8 4 1 1 4 20 41 39 31 24 15 4 357 358 2 360 353 344 333 326 322 326 332 330 329 334 340 342 336 340 351 1 6 5 6 9 12 19 26 26 20 17 11 357 351 353 359 350 324 319 305 293 294 300 306 312 318 314 263 247 246 257 272 282 284 297 311 322 318 286 261 255 256 264 279 291 296 294 292
137 113 68 42 28 20 14 11 7 6 12 28 42 36 17 10 4 358 357 359 3 2 354 346 337 330 325 324 325 324 328 329 332 337 333 335 346 357 5 5 4 2 2 5 13 21 22 17 13 5 354 349 347 335 318 313 291 279 284 290 293 298 298 283 263 251 250 260 267 279 291 300 302 301 292 274 263 261 263 275 284 284 287 289 289
124 93 52 37 30 25 20 16 11 10 23 38 41 29 9 1 359 358 1 3 4 3 359 354 349 344 339 334 328 323 324 325 328 333 333 333 341 353 2 4 1 358 354 354 358 8 17 17 12 5 355 346 340 330 319 309 289 275 273 277 280 282 277 266 255 251 254 265 271 281 294 296 292 287 280 270 266 270 272 277 279 276 278 284 286
114 87 56 46 38 28 22 17 15 16 29 41 36 22 7 0 359 359 4 5 3 1 0 0 357 352 345 341 337 330 323 321 323 325 326 329 337 348 356 356 353 349 345 344 347 353 2 9 9 1 352 345 337 324 312 302 292 285 278 274 273 270 267 259 247 242 240 249 267 282 295 296 292 290 292 292 289 288 286 281 277 277 279 285 288
105 84 63 54 42 27 19 16 14 18 31 39 32 18 8 1 356 358 3 5 2 1 1 1 358 352 346 343 346 343 329 318 315 315 317 322 331 342 347 342 336 334 334 335 338 340 344 348 349 346 341 338 333 325 314 305 298 292 287 283 279 274 270 261 250 245 241 243 262 285 300 302 301 302 302 300 301 302 301 296 292 290 289 291 290
94 77 61 52 43 25 14 12 12 17 29 35 28 17 7 356 349 353 2 5 5 6 4 360 354 349 344 343 348 349 337 322 311 308 310 316 327 336 338 329 321 321 324 327 329 327 327 328 327 325 324 323 324 325 323 317 308 299 292 289 288 286 281 273 264 259 259 265 276 286 293 297 301 305 303 302 301 302 302 300 299 299 299 296 292
78 50 36 35 33 17 8 8 9 13 22 27 22 10 358 347 343 351 2 6 9 11 11 8 1 354 344 338 341 346 343 332 319 312 311 315 323 330 327 317 311 313 316 318 320 319 316 314 313 313 312 313 315 319 323 323 318 308 299 294 292 291 288 283 276 271 270 274 279 283 285 286 290 294 297 299 299 298 298 297 297 298 297 296 296
46 3 360 8 8 4 2 3 6 8 12 14 8 357 346 339 341 354 5 11 16 17 17 15 11 8 360 344 336 335 334 332 326 323 321 321 326 329 321 310 306 308 310 312 315 317 316 311 308 306 307 310 313 315 317 321 321 315 308 303 299 296 292 288 283 279 278 278 280 281 281 281 285 290 294 297 297 297 296 295 293 293 292 292 293
5 336 332 341 336 341 352 356 359 358 358 359 353 346 340 337 345 2 14 22 26 20 13 11 10 11 12 2 345 331 322 319 319 320 320 322 326 326 319 308 306 308 309 310 312 315 315 311 306 304 306 311 314 316 315 316 318 316 314 311 307 302 296 292 287 284 281 280 280 280 279 281 285 290 293 294 295 295 295 295 294 293 291 290 290
340 325 319 319 308 316 334 342 343 338 337 342 346 347 345 348 359 10 23 31 28 15 6 5 5 5 8 6 357 338 318 310 308 310 312 315 317 316 312 307 306 307 305 306 307 310 312 310 305 302 304 309 313 316 316 314 313 312 312 312 309 305 299 294 291 287 283 280 279 277 277 280 286 290 291 291 290 290 290 290 291 292 291 289 288
324 327 319 306 291 297 313 315 304 303 312 331 354 3 2 5 10 12 15 16 13 8 2 360 359 357 359 359 357 347 328 312 304 304 305 306 305 302 302 303 304 304 302 302 303 305 309 310 307 304 304 306 308 311 314 312 310 307 306 306 306 304 299 294 290 287 284 280 278 276 275 278 284 287 289 288 287 286 285 284 285 286 287 286 286
310 325 322 308 288 285 294 288 273 281 298 325 8 15 7 7 8 7 4 360 358 358 355 354 354 354 354 355 355 350 339 326 314 308 304 303 302 300 300 303 303 303 301 301 302 302 304 306 305 304 305 304 303 303 304 303 301 300 299 299 299 297 294 287 282 278 276 273 270 268 269 271 277 283 285 286 284 283 282 281 281 281 282 282 283
297 314 318 312 296 285 284 274 260 265 283 301 336 353 352 354 357 360 359 353 349 346 344 347 352 354 356 358 360 358 350 340 330 320 311 308 308 309 310 310 307 306 304 303 302 299 298 296 295 296 298 297 294 293 293 292 291 290 289 288 288 287 285 279 272 268 266 265 264 264 266 271 278 283 285 284 282 280 278 277 277 277 277 278 278
280 300 311 312 305 293 282 268 255 256 268 277 290 317 330 336 347 356 354 345 340 338 338 343 350 355 360 2 4 6 3 357 350 342 333 326 322 319 318 318 316 314 311 308 304 299 295 290 285 284 285 286 286 284 282 282 282 283 282 281 279 278 276 272 268 266 265 265 266 268 271 276 281 284 285 285 282 278 275 273 273 273 273 273 273
269 290 305 310 308 299 284 266 254 254 262 268 277 297 312 324 342 351 345 340 338 340 344 349 353 359 2 2 3 7 9 7 3 359 351 343 336 329 323 322 323 323 321 317 311 305 298 291 284 279 278 277 277 277 276 275 275 275 276 277 277 276 275 273 271 269 268 268 269 271 274 277 281 283 284 285 283 279 275 272 271 270 271 271 271
266 284 301 308 307 300 285 265 251 252 261 265 272 287 302 318 338 344 341 341 344 348 352 355 356 1 3 360 359 360 4 6 5 1 357 349 340 331 323 320 321 323 325 325 322 317 309 301 292 285 280 275 272 270 271 271 271 271 272 273 274 275 275 275 274 274 274 273 273 273 274 276 278 280 282 283 283 280 276 272 270 269 269 270 270
261 278 295 305 306 300 286 263 250 251 258 264 270 278 294 316 333 340 342 345 348 349 351 354 354 355 357 355 353 352 353 356 357 356 352 346 339 330 323 318 316 317 319 322 324 324 321 316 309 302 294 285 277 272 270 270 270 270 270 271 272 274 274 274 274 275 276 277 278 277 277 276 276 277 278 279 280 279 276 273 270 269 268 269 269
259 274 287 297 302 300 285 263 251 252 256 261 267 271 288 313 328 338 342 345 347 347 349 350 348 346 347 349 349 349 348 349 350 351 346 340 334 329 325 320 315 314 313 316 320 323 324 323 322 319 313 306 297 288 281 275 272 271 271 271 272 272 273 273 274 274 275 276 277 277 277 277 276 275 275 276 276 276 275 273 271 269 268 268 269
260 268 275 288 298 297 285 263 252 254 256 260 264 268 283 306 324 337 341 343 344 344 346 347 346 346 348 350 353 353 351 350 351 350 348 346 341 336 331 326 321 318 317 317 320 322 324 326 325 324 320 315 310 303 296 290 286 284 283 282 281 279 277 277 276 276 276 276 276 275 275 274 274 274 274 274 273 273 273 272 271 270 269 268 268
256 260 268 281 291 293 282 261 253 256 257 259 262 264 277 298 318 333 338 340 340 340 347 352 354 356 358 360 3 4 360 356 355 356 358 359 356 350 345 341 335 332 329 327 326 325 327 328 326 324 321 318 315 311 307 304 301 299 296 294 292 289 287 285 283 282 280 279 279 278 277 276 275 274 274 274 274 273 272 271 271 270 269 268 267
254 259 266 276 283 286 276 258 253 258 259 259 261 263 273 290 311 330 333 331 332 337 349 358 360 359 360 2 5 8 6 3 1 2 4 5 3 0 357 355 351 348 345 340 334 328 327 327 325 322 320 318 316 314 311 308 306 304 301 298 296 294 292 290 288 287 285 283 282 282 281 280 279 278 277 277 276 275 274 273 272 271 269 268 267
253 257 262 270 277 279 271 255 252 258 260 258 259 262 270 281 301 322 325 321 321 330 343 351 350 347 349 354 359 1 1 0 358 356 357 358 1 1 357 354 351 349 348 347 342 331 326 325 321 318 316 314 313 311 309 307 305 303 301 300 298 296 294 293 291 289 287 286 284 283 283 282 282 282 282 281 280 278 276 274 273 272 270 269 268
252 256 261 267 273 274 266 253 249 255 258 257 257 262 268 276 295 312 315 313 311 317 326 329 327 332 340 349 353 354 354 352 349 347 347 348 350 351 350 347 344 341 339 339 343 340 332 328 325 322 319 316 314 311 308 306 303 301 301 301 301 300 299 297 295 292 291 289 288 287 287 287 286 286 285 285 284 282 279 276 274 272 271 270 269
254 257 260 264 268 268 261 250 246 251 256 255 254 259 265 273 288 301 304 304 304 306 311 311 309 316 332 346 349 347 346 343 339 338 339 339 339 339 339 337 334 332 329 329 335 340 338 332 329 327 324 320 318 315 312 309 305 302 302 302 302 302 302 300 298 297 296 294 294 293 293 292 291 290 289 288 286 284 282 279 275 272 270 269 269
254 257 259 262 265 263 255 246 243 247 253 253 252 255 261 268 280 290 292 294 299 307 311 309 304 308 324 340 343 339 335 331 329 329 328 329 330 330 331 330 327 325 324 324 328 333 335 332 328 326 322 319 317 314 311 309 306 304 302 302 303 302 302 301 300 299 298 297 296 296 295 295 294 293 292 290 288 286 284 282 278 274 271 269 268
256 258 259 262 264 260 251 244 241 245 250 251 249 252 256 262 273 282 285 291 300 310 316 314 309 311 320 328 328 326 322 318 317 317 318 320 321 321 323 325 323 322 322 324 326 329 330 330 328 326 322 318 313 310 307 306 305 304 303 303 303 301 301 300 299 298 296 296 295 295 295 295 295 294 291 289 289 288 286 284 281 278 274 271 269
259 259 261 264 264 256 247 242 241 244 249 250 248 249 252 257 267 276 281 289 297 306 312 313 313 318 323 323 320 317 315 313 313 315 316 315 314 314 317 320 321 321 321 323 326 326 327 328 328 327 324 320 315 310 307 306 306 305 304 304 303 302 300 299 298 297 295 295 295 295 295 296 296 294 290 288 288 288 286 285 283 280 277 274 272
259 260 261 263 260 251 242 239 240 243 248 250 248 247 250 254 262 272 279 286 292 297 304 308 313 324 334 335 330 325 322 318 315 314 314 312 307 307 311 315 318 319 320 322 323 324 323 324 325 325 324 322 318 315 315 314 313 311 309 308 307 305 304 302 301 299 298 297 296 296 297 297 297 295 292 288 286 285 285 284 283 281 278 275 273
260 261 261 259 253 244 238 237 240 244 250 253 250 248 249 252 258 267 276 284 291 294 297 303 311 324 338 341 337 333 328 321 314 310 309 307 303 301 306 312 317 318 318 318 319 320 320 320 320 321 321 319 317 317 320 321 320 318 316 314 313 313 311 309 307 305 303 301 299 297 297 297 297 296 294 291 288 286 285 284 284 283 281 279 278
259 259 258 254 248 241 236 236 240 246 253 256 253 249 249 251 255 263 272 281 289 293 296 302 310 322 332 337 337 334 329 324 317 310 307 306 301 300 306 312 315 316 315 315 315 315 316 316 316 316 316 315 315 316 320 322 321 320 318 317 316 316 316 314 312 309 306 303 300 299 298 298 298 297 296 294 292 289 286 284 284 283 283 283 282
256 256 255 251 246 242 239 238 241 248 256 261 258 253 252 253 254 259 267 276 284 290 293 299 311 322 328 332 336 333 329 331 333 329 323 318 310 306 309 312 313 314 313 313 312 312 313 314 313 312 312 312 312 315 319 320 320 320 319 317 316 315 314 313 311 309 306 302 300 300 300 300 300 298 297 294 293 291 288 286 286 285 285 285 285
253 251 251 250 247 245 245 244 245 251 260 265 262 256 254 256 256 256 263 271 278 285 289 295 308 319 324 330 338 335 329 333 341 340 335 329 321 314 314 314 314 314 314 312 310 310 313 313 312 311 311 310 311 314 315 317 318 318 317 317 316 315 313 311 308 306 304 302 302 302 302 303 301 298 297 296 294 294 292 291 291 290 289 288 288
257 254 252 251 251 250 250 249 249 254 262 267 264 258 255 257 258 257 262 268 274 280 287 294 304 314 321 328 338 337 330 328 332 333 330 326 320 316 315 315 315 315 314 313 312 312 314 314 313 313 311 310 312 313 313 314 317 318 318 319 317 316 314 311 308 306 305 303 303 303 304 303 300 298 299 298 297 296 295 294 293 292 290 288 288
271 264 259 257 255 254 254 253 253 256 262 265 264 259 255 257 259 260 262 268 273 279 286 294 302 310 318 324 331 334 330 327 330 332 328 323 319 314 313 315 315 316 316 316 316 316 316 316 315 314 312 312 314 314 312 313 317 319 319 320 319 317 315 313 309 307 306 305 304 304 305 303 299 299 300 299 298 297 296 295 294 293 291 290 289
280 275 271 267 264 261 259 259 258 259 260 262 263 261 258 258 261 262 263 267 272 277 283 291 299 306 314 319 324 328 327 325 328 330 328 324 321 317 316 316 317 318 320 321 320 319 318 318 316 314 313 313 314 315 315 316 319 321 321 320 319 317 315 313 311 308 306 305 305 306 306 304 301 300 300 299 299 299 298 297 295 294 292 291 289
275 275 277 277 275 272 269 266 264 262 260 259 261 261 260 261 263 264 264 267 271 275 279 286 294 301 308 311 315 320 322 322 323 324 324 323 322 320 320 320 320 320 321 321 320 319 319 318 316 314 313 313 315 316 318 320 321 321 321 320 319 317 315 313 311 309 307 307 307 309 309 307 305 304 303 302 302 302 300 299 297 296 294 292 290
274 276 278 279 279 279 277 275 272 267 262 259 259 261 262 262 264 265 266 267 270 274 278 282 289 295 301 304 307 312 318 319 319 318 318 319 320 321 321 321 320 320 320 320 319 318 319 317 315 313 312 313 315 316 319 321 321 321 321 319 318 316 315 313 311 310 309 310 310 311 311 310 308 308 307 306 306 305 303 301 299 298 296 294 292
274 274 275 277 280 281 281 281 278 275 270 265 262 262 263 264 265 266 267 268 270 273 276 280 286 291 294 298 301 306 311 314 315 314 314 316 318 320 320 319 319 320 320 319 319 319 319 317 314 313 312 313 315 316 319 321 321 320 320 319 317 316 314 313 312 311 311 311 312 313 314 313 311 311 311 310 309 308 305 303 301 299 297 296 293
270 271 272 275 278 279 280 279 278 278 278 275 271 267 266 265 266 267 268 269 271 273 275 278 284 287 290 293 297 299 302 306 309 308 308 311 314 316 318 317 318 319 320 319 319 319 318 316 313 312 312 313 315 317 320 321 321 320 320 318 317 316 315 314 314 313 313 313 315 316 316 315 314 315 315 314 312 310 307 305 303 301 298 296 293
266 268 270 271 271 271 273 275 277 278 277 278 277 275 272 269 268 269 271 272 273 273 274 276 280 284 287 289 291 293 296 300 304 304 302 305 310 312 314 315 316 317 319 319 319 319 317 315 313 312 312 314 316 319 320 320 320 320 319 318 317 317 316 316 315 314 315 316 317 318 317 317 317 317 316 316 314 312 310 309 307 304 300 297 293
262 264 265 266 266 266 267 269 272 274 275 276 277 276 275 274 273 273 273 274 275 275 275 276 278 281 284 286 287 290 292 296 300 301 300 303 308 309 310 312 314 315 318 319 319 318 316 314 312 312 312 314 317 319 319 319 320 320 319 318 317 317 318 317 316 316 317 318 318 319 319 319 318 317 316 316 316 315 313 312 310 307 304 301 296
259 260 260 260 260 261 262 264 264 266 269 271 274 274 274 275 275 276 277 277 277 277 276 277 278 279 281 284 286 288 290 292 296 299 300 304 307 307 308 309 311 313 316 318 318 317 315 313 311 311 313 315 317 318 318 319 320 320 318 317 318 319 319 318 318 318 318 318 319 319 319 318 317 317 317 318 317 317 316 315 313 310 307 304 300
Height
5939 5939 5939 5939 5939 5939 5939 5939 5939 5939 5938 5938 5937 5936 5936 5935 5935 5934 5934 5933 5933 5933 5932 5932 5931 5931 5930 5930 5929 5929 5928 5927 5926 5925 5924 5923 5923 5923 5923 5923 5923 5923 5922 5922 5922 5921 5921 5921 5921 5921 5921 5920 5920 5920 5920 5920 5920 5920 5920 5920 5920 5920 5920 5920 5920 5921 5921 5921 5922 5922 5922 5922 5922 5922 5922 5923 5923 5923 5922 5922 5922 5922 5921 5921 5921
5939 5939 5940 5940 5940 5940 5940 5940 5940 5939 5939 5938 5937 5937 5936 5936 5935 5935 5934 5934 5934 5933 5932 5932 5932 5931 5930 5930 5929 5929 5928 5927 5926 5926 5925 5924 5923 5923 5923 5923 5923 5922 5922 5922 5922 5921 5921 5921 5921 5921 5921 5921 5920 5920 5920 5920 5920 5920 5919 5919 5919 5919 5919 5919 5919 5920 5920 5921 5921 5921 5921 5922 5921 5921 5921 5922 5922 5922 5921 5921 5921 5921 5921 5921 5920
5940 5940 5940 5940 5940 5941 5941 5940 5940 5939 5939 5938 5938 5937 5937 5936 5936 5935 5935 5934 5934 5933 5933 5932 5932 5931 5931 5930 5930 5929 5928 5928 5927 5926 5925 5925 5924 5923 5923 5923 5923 5922 5922 5922 5922 5921 5921 5921 5922 5921 5921 5921 5920 5920 5920 5920 5921 5921 5920 5919 5919 5919 5919 5919 5919 5919 5919 5919 5919 5920 5920 5920 5920 5920 5920 5920 5921 5921 5921 5920 5920 5920 5920 5920 5920
5940 5940 5941 5941 5941 5941 5941 5940 5940 5939 5939 5939 5938 5938 5937 5937 5936 5935 5935 5934 5934 5933 5933 5932 5932 5931 5931 5930 5930 5929 5929 5928 5927 5926 5925 5925 5924 5924 5924 5924 5923 5922 5922 5922 5921 5921 5921 5921 5921 5922 5921 5921 5921 5921 5921 5921 5921 5921 5920 5920 5920 5920 5919 5918 5918 5918 5918 5918 5918 5918 5918 5918 5919 5919 5919 5919 5920 5920 5920 5920 5920 5919 5920 5920 5919
5941 5941 5941 5941 5941 5941 5941 5940 5940 5939 5939 5939 5938 5938 5937 5936 5936 5935 5935 5934 5934 5933 5932 5932 5931 5931 5931 5930 5930 5929 5929 5928 5927 5927 5926 5925 5924 5924 5924 5924 5923 5922 5922 5921 5921 5921 5921 5921 5921 5921 5921 5921 5921 5921 5921 5921 5921 5920 5919 5920 5920 5920 5919 5917 5917 5918 5918 5917 5917 5916 5917 5917 5918 5919 5919 5919 5919 5919 5920 5920 5920 5920 5920 5920 5919
5941 5941 5941 5941 5942 5941 5941 5940 5940 5939 5939 5938 5938 5937 5937 5936 5936 5935 5934 5934 5934 5933 5932 5931 5931 5931 5931 5930 5930 5929 5929 5928 5928 5927 5926 5925 5925 5924 5924 5923 5923 5923 5922 5921 5921 5921 5921 5921 5921 5921 5921 5921 5920 5921 5921 5921 5921 5920 5919 5919 5919 5919 5919 5919 5918 5918 5917 5917 5916 5916 5916 5917 5917 5917 5918 5918 5918 5918 5919 5919 5919 5919 5919 5920 5919
5941 5941 5941 5941 5941 5941 5941 5940 5940 5939 5939 5938 5937 5937 5937 5936 5936 5935 5935 5934 5933 5933 5932 5931 5930 5930 5930 5930 5930 5930 5929 5929 5928 5927 5927 5926 5925 5924 5924 5924 5923 5923 5922 5922 5921 5921 5921 5921 5921 5921 5921 5921 5920 5920 5921 5921 5921 5920 5920 5919 5918 5919 5920 5920 5919 5917 5916 5916 5916 5916 5916 5916 5915 5916 5916 5916 5917 5917 5917 5917 5917 5917 5918 5919 5919
5941 5941 5941 5941 5941 5941 5940 5940 5939 5939 5938 5938 5937 5937 5936 5936 5936 5935 5935 5934 5934 5933 5932 5930 5930 5929 5929 5930 5930 5929 5929 5929 5928 5928 5927 5926 5925 5925 5924 5924 5923 5923 5923 5922 5922 5921 5921 5921 5921 5920 5920 5920 5920 5920 5920 5921 5921 5920 5919 5918 5918 5918 5920 5921 5918 5916 5917 5917 5917 5916 5915 5915 5914 5914 5915 5915 5915 5915 5915 5915 5915 5916 5917 5918 5918
5941 5941 5941 5941 5941 5940 5940 5939 5939 5938 5938 5937 5937 5936 5936 5936 5936 5935 5935 5934 5934 5932 5931 5930 5930 5929 5929 5929 5929 5929 5928 5928 5928 5928 5927 5927 5926 5925 5924 5924 5923 5923 5923 5923 5922 5922 5922 5921 5920 5919 5920 5920 5920 5920 5920 5920 5920 5920 5919 5918 5917 5917 5919 5920 5918 5917 5918 5918 5917 5916 5915 5915 5914 5914 5914 5913 5913 5913 5913 5914 5915 5916 5917 5916 5916
5941 5941 5941 5941 5940 5940 5939 5939 5938 5938 5938 5937 5937 5936 5936 5936 5936 5935 5935 5934 5933 5932 5931 5931 5930 5929 5929 5929 5929 5929 5928 5928 5928 5928 5927 5927 5926 5925 5924 5924 5923 5923 5923 5923 5922 5922 5922 5921 5920 5919 5919 5920 5920 5919 5919 5920 5920 5919 5919 5918 5917 5917 5918 5918 5918 5918 5918 5918 5917 5916 5916 5915 5915 5914 5914 5913 5913 5913 5913 5914 5915 5916 5915 5914 5914
5941 5941 5941 5941 5940 5940 5939 5939 5938 5938 5938 5937 5937 5936 5936 5936 5936 5935 5934 5933 5932 5932 5931 5930 5930 5929 5929 5928 5928 5928 5928 5927 5927 5927 5927 5926 5926 5925 5925 5924 5923 5923 5922 5922 5922 5922 5921 5920 5920 5919 5919 5919 5919 5918 5918 5919 5919 5919 5918 5918 5917 5917 5917 5918 5918 5918 5918 5918 5918 5917 5916 5916 5916 5915 5914 5914 5913 5913 5913 5915 5915 5914 5914 5913 5913
5941 5941 5941 5941 5940 5940 5939 5939 5938 5938 5937 5937 5936 5936 5936 5936 5935 5935 5934 5933 5932 5931 5931 5930 5929 5928 5928 5928 5928 5927 5927 5927 5926 5926 5926 5926 5926 5925 5925 5924 5924 5923 5922 5922 5921 5921 5920 5920 5919 5919 5919 5919 5919 5918 5918 5918 5918 5918 5918 5918 5918 5917 5917 5917 5917 5918 5918 5918 5918 5917 5917 5916 5916 5915 5915 5914 5913 5913 5913 5914 5914 5913 5913 5913 5912
5941 5941 5941 5941 5940 5940 5939 5939 5938 5938 5937 5937 5936 5936 5936 5936 5935 5935 5934 5933 5932 5931 5930 5929 5928 5928 5927 5927 5927 5927 5926 5926 5926 5925 5925 5925 5925 5925 5925 5925 5924 5923 5922 5922 5921 5920 5920 5920 5919 5919 5919 5919 5918 5918 5918 5918 5918 5918 5917 5918 5918 5917 5917 5917 5917 5917 5917 5917 5917 5917 5917 5916 5916 5915 5915 5914 5914 5913 5913 5914 5914 5913 5912 5912 5912
5941 5941 5941 5941 5940 5940 5939 5939 5938 5938 5937 5937 5936 5937 5936 5936 5936 5935 5934 5933 5932 5931 5930 5929 5928 5927 5927 5927 5927 5927 5926 5926 5925 5925 5925 5925 5925 5925 5925 5924 5924 5923 5922 5922 5921 5920 5920 5919 5919 5919 5919 5918 5918 5918 5917 5917 5917 5917 5917 5917 5917 5917 5917 5917 5917 5917 5917 5917 5917 5917 5917 5916 5916 5915 5915 5914 5914 5913 5913 5913 5913 5912 5912 5912 5911
5941 5941 5941 5940 5940 5940 5939 5939 5939 5938 5938 5937 5937 5937 5937 5936 5936 5934 5933 5932 5932 5931 5929 5928 5928 5927 5927 5926 5926 5926 5926 5926 5925 5925 5925 5925 5924 5924 5924 5924 5923 5923 5922 5922 5921 5920 5920 5919 5918 5918 5918 5917 5917 5917 5917 5916 5916 5916 5916 5916 5916 5917 5917 5917 5917 5917 5917 5917 5917 5916 5916 5916 5915 5915 5914 5914 5913 5913 5913 5912 5912 5912 5911 5911 5911
5940 5941 5940 5940 5940 5940 5939 5939 5939 5938 5938 5938 5938 5937 5937 5936 5935 5934 5933 5933 5932 5931 5930 5929 5928 5927 5927 5926 5926 5926 5925 5925 5925 5924 5924 5924 5924 5924 5924 5923 5922 5922 5922 5921 5921 5920 5920 5919 5918 5917 5916 5916 5916 5916 5916 5916 5916 5916 5916 5916 5916 5916 5916 5916 5916 5916 5916 5916 5916 5916 5915 5915 5914 5914 5913 5913 5913 5912 5912 5912 5911 5911 5910 5910 5910
5940 5940 5940 5940 5939 5939 5939 5939 5938 5938 5938 5938 5938 5938 5937 5936 5935 5934 5934 5933 5932 5931 5930 5930 5928 5928 5927 5926 5926 5926 5925 5925 5924 5924 5924 5924 5924 5924 5923 5922 5922 5921 5921 5921 5920 5920 5919 5918 5918 5917 5916 5915 5915 5915 5915 5915 5915 5915 5915 5915 5915 5915 5915 5915 5915 5915 5915 5915 5915 5915 5914 5914 5914 5913 5913 5912 5912 5911 5911 5911 5910 5910 5909 5909 5908
5940 5940 5939 5939 5939 5939 5938 5938 5938 5938 5938 5938 5938 5938 5937 5936 5935 5935 5934 5933 5932 5932 5931 5930 5929 5928 5927 5926 5926 5925 5925 5924 5924 5923 5923 5923 5923 5923 5922 5922 5921 5921 5920 5920 5920 5919 5919 5918 5917 5916 5916 5915 5915 5914 5914 5914 5914 5914 5914 5914 5914 5914 5914 5914 5914 5914 5914 5914 5914 5914 5914 5913 5913 5913 5912 5911 5911 5911 5910 5910 5909 5909 5908 5907 5907
5939 5939 5939 5938 5938 5938 5938 5938 5938 5938 5938 5938 5938 5937 5937 5936 5935 5935 5934 5934 5933 5932 5931 5930 5929 5928 5927 5926 5925 5924 5924 5923 5923 5922 5922 5922 5922 5922 5921 5921 5920 5920 5919 5919 5919 5919 5918 5918 5917 5916 5916 5915 5914 5914 5913 5913 5913 5913 5913 5913 5913 5913 5913 5913 5913 5913 5913 5913 5913 5913 5913 5913 5912 5912 5911 5911 5910 5910 5909 5908 5908 5907 5907 5906 5905
5938 5938 5938 5938 5938 5938 5938 5938 5938 5938 5938 5938 5937 5937 5936 5936 5935 5935 5934 5933 5932 5932 5931 5930 5929 5928 5927 5926 5925 5924 5923 5922 5922 5921 5921 5921 5921 5921 5920 5920 5919 5919 5918 5918 5918 5918 5918 5917 5916 5916 5915 5915 5914 5914 5913 5913 5912 5912 5912 5912 5912 5912 5912 5912 5912 5912 5912 5912 5912 5912 5912 5911 5911 5911 5910 5910 5909 5908 5908 5907 5906 5906 5905 5905 5904
5937 5937 5937 5937 5937 5937 5937 5937 5937 5937 5937 5937 5937 5937 5936 5936 5935 5935 5934 5933 5932 5931 5930 5930 5929 5928 5927 5926 5925 5924 5923 5922 5921 5921 5920 5920 5919 5919 5919 5919 5918 5917 5917 5916 5916 5916 5916 5916 5916 5915 5914 5914 5913 5913 5912 5912 5912 5911 5911 5911 5911 5910 5910 5910 5910 5910 5910 5910 5910 5910 5910 5910 5910 5909 5909 5908 5908 5907 5906 5905 5905 5904 5903 5903 5902
5936 5936 5937 5937 5937 5937 5937 5937 5937 5937 5937 5937 5936 5936 5936 5935 5935 5934 5933 5932 5931 5930 5930 5929 5929 5928 5927 5926 5925 5924 5923 5922 5921 5920 5919 5919 5918 5918 5917 5917 5917 5916 5915 5915 5915 5915 5915 5915 5915 5914 5913 5913 5912 5912 5912 5911 5911 5910 5910 5909 5909 5909 5909 5909 5909 5909 5909 5908 5908 5908 5908 5908 5908 5908 5907 5906 5906 5905 5904 5903 5902 5902 5901 5901 5900
5936 5936 5936 5936 5936 5936 5936 5936 5936 5936 5936 5936 5936 5935 5935 5935 5934 5934 5933 5932 5931 5930 5930 5929 5928 5927 5926 5925 5924 5923 5922 5921 5920 5920 5919 5918 5917 5916 5916 5916 5915 5915 5914 5914 5913 5913 5913 5913 5913 5913 5912 5912 5911 5911 5910 5910 5909 5909 5908 5908 5908 5907 5907 5907 5907 5907 5907 5907 5907 5906 5906 5906 5906 5905 5905 5904 5903 5903 5902 5901 5900 5899 5899 5898 5898
5935 5935 5935 5935 5935 5935 5935 5936 5936 5936 5936 5935 5935 5935 5934 5934 5934 5933 5932 5931 5930 5930 5929 5928 5927 5927 5926 5925 5924 5923 5922 5921 5920 5919 5918 5917 5916 5916 5915 5914 5914 5913 5913 5912 5911 5911 5911 5911 5911 5911 5911 5910 5910 5909 5908 5908 5907 5907 5906 5906 5905 5905 5905 5905 5905 5905 5905 5904 5904 5904 5904 5903 5903 5902 5902 5901 5901 5900 5899 5898 5897 5897 5896 5895 5895
5934 5934 5935 5934 5934 5934 5935 5935 5935 5935 5935 5935 5934 5934 5933 5933 5933 5932 5931 5930 5929 5929 5928 5928 5927 5926 5925 5924 5923 5922 5921 5920 5920 5919 5918 5917 5916 5915 5914 5913 5913 5912 5912 5911 5910 5909 5909 5909 5909 5909 5909 5908 5908 5908 5907 5906 5906 5905 5904 5904 5904 5903 5903 5902 5902 5902 5902 5901 5901 5900 5900 5900 5899 5898 5898 5897 5897 5896 5896 5895 5894 5894 5893 5892 5891
5933 5933 5933 5933 5933 5933 5934 5934 5934 5934 5934 5934 5934 5933 5933 5932 5932 5931 5930 5929 5928 5928 5927 5926 5926 5925 5924 5923 5922 5922 5921 5920 5919 5918 5917 5916 5915 5914 5913 5912 5912 5911 5910 5909 5908 5908 5907 5907 5907 5906 5906 5906 5906 5906 5905 5905 5904 5903 5903 5902 5902 5901 5901 5900 5900 5899 5899 5898 5897 5896 5896 5895 5894 5894 5893 5893 5892 5892 5892 5891 5891 5890 5889 5889 5888
5931 5932 5932 5932 5932 5932 5933 5933 5933 5933 5933 5933 5933 5933 5932 5931 5931 5930 5929 5928 5928 5927 5926 5925 5924 5924 5923 5922 5921 5921 5920 5919 5918 5917 5916 5915 5914 5913 5912 5911 5910 5910 5909 5908 5907 5906 5906 5905 5905 5904 5904 5904 5903 5903 5903 5902 5902 5901 5900 5900 5900 5899 5898 5898 5897 5897 5896 5895 5894 5893 5892 5891 5890 5889 5889 5888 5888 5887 5887 5886 5886 5886 5885 5885 5884
5930 5930 5930 5931 5931 5931 5931 5932 5932 5932 5932 5932 5932 5932 5931 5931 5930 5929 5928 5927 5927 5926 5925 5924 5923 5922 5921 5921 5920 5919 5919 5918 5917 5916 5915 5914 5913 5912 5911 5910 5909 5909 5908 5907 5906 5905 5905 5904 5903 5903 5902 5901 5901 5901 5900 5899 5899 5898 5897 5897 5896 5896 5895 5894 5893 5893 5892 5891 5890 5889 5888 5887 5886 5885 5884 5883 5883 5882 5882 5881 5881 5881 5880 5880 5880
5928 5928 5929 5929 5930 5930 5930 5930 5931 5931 5931 5931 5931 5931 5930 5930 5929 5929 5928 5927 5926 5925 5924 5923 5922 5922 5921 5919 5919 5918 5917 5917 5916 5915 5914 5913 5912 5912 5911 5910 5909 5908 5907 5906 5906 5905 5904 5903 5902 5901 5900 5900 5899 5898 5898 5897 5897 5896 5895 5894 5893 5892 5891 5890 5889 5889 5888 5887 5886 5885 5884 5883 5882 5881 5880 5879 5878 5878 5877 5876 5876 5875 5875 5875 5874
5926 5926 5927 5928 5928 5928 5928 5929 5929 5930 5930 5930 5930 5930 5930 5929 5929 5928 5927 5926 5925 5924 5923 5922 5922 5921 5920 5919 5917 5917 5916 5916 5915 5914 5914 5913 5912 5911 5910 5909 5908 5907 5906 5906 5905 5904 5903 5902 5901 5900 5900 5899 5898 5897 5896 5896 5895 5894 5893 5891 5890 5889 5888 5887 5886 5885 5884 5883 5882 5881 5879 5878 5877 5877 5876 5875 5874 5873 5872 5871 5871 5870 5870 5869 5869
5924 5924 5925 5926 5926 5926 5927 5927 5928 5928 5928 5928 5928 5929 5929 5928 5928 5927 5926 5925 5924 5923 5922 5922 5921 5920 5919 5918 5917 5916 5915 5914 5914 5913 5913 5912 5911 5910 5909 5908 5907 5907 5906 5905 5904 5903 5903 5902 5901 5900 5899 5898 5897 5896 5895 5894 5893 5892 5890 5889 5888 5887 5885 5884 5882 5881 5880 5878 5877 5876 5875 5874 5873 5872 5871 5870 5869 5868 5867 5866 5866 5865 5864 5864 5863
5922 5922 5923 5924 5924 5925 5925 5925 5926 5927 5927 5927 5927 5927 5928 5927 5927 5926 5925 5924 5923 5922 5921 5921 5920 5919 5918 5917 5916 5915 5914 5913 5913 5912 5912 5911 5910 5909 5908 5907 5906 5906 5905 5904 5903 5902 5901 5900 5900 5899 5898 5897 5896 5895 5893 5892 5891 5890 5888 5887 5885 5884 5882 5881 5879 5877 5876 5875 5874 5873 5872 5871 5869 5868 5867 5865 5864 5863 5862 5861 5860 5859 5858 5858 5857
5919 5920 5921 5921 5922 5923 5923 5923 5924 5925 5925 5925 5925 5926 5926 5926 5926 5925 5925 5924 5923 5921 5921 5920 5919 5918 5918 5917 5916 5915 5914 5913 5912 5911 5910 5910 5909 5908 5907 5906 5905 5904 5903 5902 5901 5900 5900 5899 5898 5897 5896 5895 5894 5893 5891 5890 5889 5888 5886 5884 5883 5881 5879 5877 5875 5873 5872 5871 5869 5868 5867 5866 5865 5863 5862 5860 5859 5857 5856 5855 5854 5853 5852 5851 5851
5917 5918 5919 5919 5920 5920 5921 5921 5922 5923 5923 5924 5924 5924 5925 5925 5925 5925 5924 5923 5922 5921 5920 5919 5918 5917 5917 5916 5915 5914 5913 5912 5911 5910 5909 5908 5908 5907 5905 5904 5903 5903 5902 5900 5899 5898 5897 5897 5896 5895 5894 5893 5891 5890 5889 5888 5887 5885 5883 5882 5880 5878 5876 5874 5871 5869 5868 5866 5865 5864 5863 5861 5859 5857 5856 5854 5853 5851 5850 5848 5847 5846 5846 5845 5844
5915 5916 5916 5917 5918 5918 5919 5919 5920 5920 5921 5921 5922 5922 5923 5923 5923 5923 5923 5922 5921 5920 5919 5918 5917 5916 5915 5915 5914 5913 5912 5911 5910 5909 5908 5907 5906 5905 5904 5903 5902 5901 5900 5898 5897 5895 5894 5894 5893 5892 5891 5890 5888 5887 5886 5884 5883 5881 5880 5878 5876 5874 5872 5870 5868 5865 5863 5862 5861 5859 5858 5856 5854 5852 5850 5848 5846 5844 5843 5841 5840 5839 5838 5838 5837
5913 5914 5914 5914 5915 5916 5916 5917 5917 5918 5919 5919 5920 5920 5921 5921 5922 5921 5921 5921 5920 5919 5918 5917 5916 5915 5914 5914 5913 5912 5911 5910 5909 5908 5907 5906 5905 5903 5902 5901 5900 5899 5898 5897 5895 5893 5891 5890 5889 5888 5887 5886 5885 5883 5882 5881 5879 5877 5876 5874 5872 5870 5868 5866 5864 5861 5859 5857 5856 5854 5853 5851 5849 5847 5845 5843 5840 5838 5836 5834 5833 5832 5831 5830 5830
5910 5911 5911 5912 5913 5913 5914 5914 5915 5916 5916 5917 5917 5918 5918 5919 5919 5919 5919 5919 5918 5918 5917 5915 5914 5914 5913 5913 5912 5911 5910 5909 5908 5907 5906 5905 5903 5901 5900 5899 5898 5897 5896 5895 5893 5891 5889 5888 5886 5884 5883 5882 5880 5878 5877 5876 5874 5873 5872 5870 5867 5865 5864 5862 5859 5857 5854 5852 5851 5849 5847 5845 5843 5841 5839 5837 5835 5833 5831 5828 5827 5825 5824 5823 5822
5907 5907 5908 5909 5910 5911 5911 5911 5912 5913 5914 5914 5915 5915 5916 5916 5917 5917 5917 5917 5916 5916 5915 5914 5912 5912 5912 5911 5910 5910 5909 5907 5906 5904 5903 5902 5901 5899 5898 5897 5896 5895 5893 5892 5891 5889 5888 5886 5883 5881 5880 5878 5876 5874 5872 5871 5869 5868 5867 5865 5862 5860 5858 5856 5854 5851 5849 5847 5845 5843 5842 5840 5837 5835 5832 5830 5828 5826 5824 5822 5821 5819 5817 5816 5815
5903 5904 5905 5906 5907 5908 5908 5909 5910 5910 5911 5912 5912 5912 5913 5914 5914 5914 5914 5914 5914 5913 5913 5911 5910 5910 5910 5909 5909 5908 5906 5904 5902 5901 5899 5899 5898 5898 5897 5895 5894 5892 5891 5890 5889 5887 5886 5884 5881 5879 5877 5875 5872 5870 5868 5867 5865 5864 5862 5860 5858 5855 5853 5850 5848 5845 5843 5841 5839 5837 5836 5834 5831 5828 5825 5823 5821 5819 5817 5815 5814 5812 5810 5809 5808
5901 5901 5902 5903 5904 5905 5906 5907 5907 5907 5908 5909 5910 5910 5911 5911 5911 5911 5911 5912 5911 5911 5910 5909 5908 5908 5907 5907 5906 5905 5903 5901 5900 5898 5897 5897 5896 5895 5895 5893 5892 5890 5889 5887 5886 5885 5883 5881 5878 5876 5874 5871 5869 5866 5864 5863 5861 5859 5858 5856 5853 5851 5849 5846 5843 5840 5837 5835 5833 5831 5829 5827 5824 5820 5818 5816 5813 5811 5809 5808 5806 5804 5803 5802 5801
5898 5899 5899 5900 5901 5902 5903 5904 5905 5905 5905 5906 5907 5908 5908 5908 5908 5908 5909 5909 5909 5909 5908 5907 5906 5906 5905 5905 5904 5902 5900 5899 5898 5897 5896 5895 5895 5893 5892 5891 5889 5888 5886 5885 5883 5882 5880 5878 5875 5873 5871 5868 5865 5863 5861 5859 5857 5855 5853 5851 5849 5846 5844 5842 5839 5835 5832 5829 5827 5825 5823 5820 5816 5813 5811 5809 5806 5804 5802 5801 5799 5797 5795 5794 5793
5896 5896 5897 5897 5898 5899 5900 5901 5902 5902 5903 5904 5904 5905 5905 5905 5904 5905 5905 5906 5906 5907 5906 5905 5904 5903 5903 5903 5902 5900 5899 5897 5897 5895 5894 5893 5892 5891 5890 5888 5886 5884 5883 5882 5880 5878 5876 5874 5872 5869 5867 5864 5862 5859 5857 5855 5853 5851 5849 5846 5844 5841 5839 5836 5833 5830 5826 5823 5820 5818 5817 5814 5810 5807 5804 5801 5799 5797 5795 5793 5791 5789 5788 5786 5785
5894 5894 5895 5895 5896 5896 5897 5898 5899 5900 5900 5901 5901 5901 5901 5901 5901 5901 5902 5903 5903 5904 5903 5902 5901 5901 5900 5900 5900 5898 5897 5896 5895 5893 5892 5891 5890 5888 5887 5885 5883 5881 5879 5878 5876 5874 5872 5870 5868 5865 5863 5860 5858 5855 5854 5852 5849 5846 5844 5841 5838 5836 5833 5831 5828 5824 5820 5816 5814 5812 5811 5808 5804 5801 5798 5795 5793 5791 5789 5786 5784 5782 5781 5779 5778
5892 5893 5893 5893 5893 5894 5894 5895 5896 5897 5897 5897 5897 5897 5898 5898 5898 5898 5898 5899 5900 5900 5900 5900 5899 5898 5898 5897 5896 5895 5894 5894 5893 5891 5890 5888 5887 5885 5884 5882 5879 5877 5875 5874 5872 5870 5868 5866 5864 5861 5858 5856 5854 5852 5850 5847 5844 5841 5839 5836 5833 5830 5828 5825 5822 5819 5815 5811 5808 5807 5805 5802 5798 5796 5793 5790 5787 5785 5782 5780 5777 5776 5774 5773 5771
5890 5891 5891 5891 5891 5891 5892 5892 5892 5893 5894 5894 5893 5894 5894 5894 5894 5894 5894 5895 5896 5897 5897 5897 5896 5895 5895 5894 5893 5892 5891 5891 5890 5889 5887 5886 5884 5882 5880 5878 5876 5873 5871 5870 5868 5866 5864 5862 5859 5857 5854 5851 5849 5847 5845 5843 5839 5837 5834 5831 5828 5825 5823 5820 5816 5813 5809 5806 5803 5801 5799 5797 5793 5791 5788 5784 5781 5779 5776 5773 5771 5769 5767 5766 5764
5888 5889 5889 5889 5889 5889 5889 5889 5889 5890 5890 5890 5890 5890 5890 5890 5890 5890 5890 5890 5891 5893 5893 5893 5893 5892 5891 5890 5889 5888 5888 5887 5887 5885 5884 5883 5881 5879 5877 5875 5872 5870 5868 5866 5864 5862 5860 5858 5855 5852 5850 5847 5845 5843 5840 5838 5835 5832 5829 5826 5823 5820 5817 5814 5811 5807 5803 5800 5798 5796 5794 5791 5788 5785 5782 5779 5776 5773 5770 5767 5765 5762 5761 5759 5757
5885 5886 5886 5887 5887 5887 5887 5887 5887 5887 5887 5887 5887 5886 5886 5886 5886 5885 5885 5886 5887 5888 5889 5889 5889 5889 5888 5887 5885 5885 5884 5884 5883 5882 5881 5879 5878 5876 5873 5871 5869 5866 5864 5862 5859 5857 5856 5853 5851 5848 5846 5843 5841 5838 5836 5833 5830 5828 5825 5822 5819 5816 5812 5808 5805 5802 5798 5796 5793 5791 5789 5786 5783 5780 5777 5774 5771 5768 5764 5761 5759 5756 5754 5752 5750
5882 5883 5883 5884 5884 5884 5884 5884 5884 5884 5884 5884 5884 5883 5883 5882 5882 5881 5881 5882 5884 5884 5884 5885 5885 5885 5884 5883 5882 5881 5880 5880 5879 5878 5877 5875 5874 5872 5870 5868 5866 5863 5861 5858 5855 5853 5851 5849 5847 5844 5842 5839 5837 5834 5831 5828 5825 5823 5820 5817 5814 5811 5807 5803 5800 5797 5793 5791 5788 5786 5784 5781 5778 5775 5772 5770 5766 5763 5759 5755 5752 5750 5747 5745 5743
5878 5879 5880 5880 5881 5881 5880 5880 5881 5881 5881 5880 5880 5880 5879 5878 5877 5877 5877 5879 5880 5880 5880 5881 5881 5880 5880 5879 5878 5877 5876 5876 5875 5874 5873 5872 5870 5868 5866 5864 5862 5859 5857 5854 5852 5849 5847 5845 5843 5840 5838 5835 5832 5829 5826 5823 5821 5818 5815 5812 5809 5806 5802 5799 5795 5792 5789 5786 5783 5781 5779 5776 5773 5770 5768 5765 5762 5758 5753 5749 5746 5743 5740 5738 5736
5874 5875 5875 5876 5876 5876 5877 5877 5877 5877 5876 5876 5877 5877 5876 5874 5873 5873 5874 5875 5876 5875 5875 5876 5877 5876 5876 5875 5874 5873 5872 5872 5871 5870 5869 5868 5865 5863 5861 5860 5858 5856 5853 5851 5848 5846 5843 5841 5838 5836 5834 5831 5827 5824 5822 5819 5816 5813 5810 5807 5804 5801 5798 5794 5791 5788 5785 5782 5779 5777 5774 5772 5769 5766 5764 5761 5757 5752 5747 5743 5739 5735 5732 5730 5728
5869 5870 5870 5871 5871 5872 5872 5872 5872 5872 5872 5872 5873 5873 5872 5871 5870 5869 5869 5870 5871 5871 5871 5871 5872 5872 5872 5871 5870 5869 5868 5867 5867 5866 5865 5863 5861 5859 5857 5856 5854 5852 5849 5847 5844 5842 5839 5836 5834 5832 5829 5826 5823 5820 5817 5815 5811 5808 5806 5803 5799 5796 5793 5789 5786 5783 5781 5778 5776 5773 5771 5768 5765 5762 5758 5756 5753 5748 5742 5738 5733 5729 5725 5722 5720